This is the latest recevied weather packets stored in our database for station/object JF7ELG-13. If no packets are shown the sender has not sent any weather packets the latest 10 day(s).
| Time | Temp. | Humidity | Pressure | Rain* | Wind** | Luminosity | Snow |
|---|---|---|---|---|---|---|---|
| 1778114935 | 20.56° C | 74% | 1010.2 hPa | 0 mm | - | - | - |
| 1778114019 | 20.56° C | 73% | 1010.3 hPa | 0 mm | - | - | - |
| 1778113106 | 21.11° C | 72% | 1010.5 hPa | 0 mm | - | - | - |
| 1778112203 | 21.11° C | 74% | 1010.6 hPa | 0 mm | - | - | - |
| 1778111296 | 21.11° C | 72% | 1010.8 hPa | 0 mm | - | - | - |
| 1778110398 | 20.56° C | 73% | 1010.8 hPa | 0 mm | - | - | - |
| 1778109529 | 22.78° C | 68% | 1011.1 hPa | 0 mm | - | - | - |
| 1778108629 | 22.78° C | 67% | 1011.1 hPa | 0 mm | - | - | - |
| 1778107700 | 22.22° C | 67% | 1011.2 hPa | 0 mm | - | - | - |
| 1778106818 | 21.11° C | 73% | 1011.2 hPa | 0 mm | - | - | - |
| 1778105933 | 20.56° C | 74% | 1011.3 hPa | 0 mm | - | - | - |
| 1778105013 | 18.89° C | 79% | 1011.3 hPa | 0 mm | - | - | - |
| 1778104102 | 18.33° C | 81% | 1011.3 hPa | 0 mm | - | - | - |
| 1778103217 | 17.22° C | 85% | 1011.4 hPa | 0 mm | - | - | - |
| 1778102335 | 15.56° C | 89% | 1011.4 hPa | 0 mm | - | - | - |
| 1778101400 | 15° C | 93% | 1011.6 hPa | 0 mm | - | - | - |
| 1778100519 | 13.33° C | 95% | 1011.4 hPa | 0 mm | - | - | - |
| 1778099618 | 12.22° C | 95% | 1011.4 hPa | 0 mm | - | - | - |
| 1778098735 | 11.67° C | 95% | 1011.3 hPa | 0 mm | - | - | - |
| 1778097810 | 11.67° C | 94% | 1011.5 hPa | 0 mm | - | - | - |
| 1778096920 | 11.67° C | 94% | 1011.4 hPa | 0 mm | - | - | - |
| 1778096014 | 11.67° C | 92% | 1011.3 hPa | 0 mm | - | - | - |
| 1778095103 | 12.22° C | 92% | 1011.2 hPa | 0 mm | - | - | - |
| 1778094220 | 12.22° C | 92% | 1011.3 hPa | 0 mm | - | - | - |
| 1778093311 | 12.22° C | 90% | 1011.4 hPa | 0 mm | - | - | - |
* Rain latest hour (hover to see other rain measurements)
** Current wind speed in m/s (hover to see current wind gust speed)